Alexandria Esle, LA

12:56 PM CDT on May 21, 2018 (GMT -0500)
Alexandria Esler Regional

Weather History for KESF - April, 2014

Change the Weather History Date:

Friday, April 11, 2014

  Actual Average Record
Temperature  
Mean Temperature 66 °F -  
Max Temperature 80 °F 75 °F 87 °F (1963)
Min Temperature 51 °F 53 °F 31 °F (1989)
Growing Degree Days 16 (Base 50)    
Moisture  
Dew Point 54 °F    
Average Humidity 73    
Maximum Humidity 93    
Minimum Humidity 43    
Precipitation  
Precipitation 0.00 in - - ()
Sea Level Pressure  
Sea Level Pressure 30.10 in    
Wind  
Wind Speed 4 mph (South)    
Max Wind Speed 13 mph    
Max Gust Speed 17 mph    
Visibility 9 miles    
Events      
Averages and records for this station are not official NWS values.
T = Trace of Precipitation, MM = Missing Value Source: NWS Daily Summary

Daily Weather History Graph

Daily Weather History Graph

Search for Another Location

Airport or City:

Astronomy

Apr. 11, 2014 Rise Set
Actual Time 6:45 AM CDT 7:35 PM CDT
Civil Twilight 6:20 AM CDT 8:00 PM CDT
Nautical Twilight 5:51 AM CDT 8:29 PM CDT
Astronomical Twilight 5:21 AM CDT 8:59 PM CDT
Moon 4:28 PM CDT (4/11) 4:27 AM CDT (4/11)
Length of Visible Light 13h 39m
Length of Day
12h 49m
Waxing Gibbous, 87% of the Moon is Illuminated
Apr 11
Waxing Gibbous
Apr 15
Full
Apr 22
Last Quarter
Apr 29
New
May 6
First Quarter

Hourly Weather History & Observations

Time (CDT) Temp. Heat Index Dew Point Humidity Pressure Visibility Wind Dir Wind Speed Gust Speed Precip Events Conditions
12:53 AM 59.0 °F - 53.1 °F 81% 30.12 in 10.0 mi South 3.5 mph - N/A   Clear
1:53 AM 57.0 °F - 53.1 °F 87% 30.10 in 10.0 mi SE 3.5 mph - N/A   Clear
2:53 AM 54.0 °F - 51.1 °F 90% 30.10 in 10.0 mi Calm Calm - N/A   Clear
3:53 AM 52.0 °F - 50.0 °F 93% 30.11 in 4.0 mi Calm Calm - N/A   Partly Cloudy
3:58 AM 52.0 °F - 50.0 °F 93% 30.11 in 1.8 mi Calm Calm - N/A   Clear
4:11 AM 51.1 °F - 48.9 °F 92% 30.11 in 1.5 mi Calm Calm - N/A   Partly Cloudy
4:16 AM 51.1 °F - 48.9 °F 92% 30.11 in 4.0 mi Calm Calm - N/A   Clear
4:53 AM 51.1 °F - 48.9 °F 92% 30.10 in 8.0 mi Calm Calm - N/A   Partly Cloudy
5:40 AM 52.0 °F - 50.0 °F 93% 30.11 in 9.0 mi ESE 3.5 mph - N/A   Mostly Cloudy
5:53 AM 53.1 °F - 51.1 °F 93% 30.11 in 10.0 mi SE 3.5 mph - N/A   Mostly Cloudy
6:07 AM 53.1 °F - 51.1 °F 93% 30.11 in 10.0 mi SE 3.5 mph - N/A   Partly Cloudy
6:53 AM 52.0 °F - 50.0 °F 93% 30.13 in 6.0 mi Calm Calm - N/A   Partly Cloudy
7:53 AM 54.0 °F - 52.0 °F 93% 30.15 in 9.0 mi Calm Calm - N/A   Partly Cloudy
8:53 AM 62.1 °F - 55.9 °F 80% 30.17 in 10.0 mi Variable 4.6 mph - N/A   Scattered Clouds
9:53 AM 68.0 °F - 57.0 °F 68% 30.17 in 10.0 mi South 4.6 mph - N/A   Mostly Cloudy
10:53 AM 73.0 °F - 55.9 °F 55% 30.17 in 10.0 mi SW 10.4 mph - N/A   Mostly Cloudy
11:53 AM 73.0 °F - 55.9 °F 55% 30.17 in 10.0 mi SW 12.7 mph 17.3 mph N/A   Mostly Cloudy
12:53 PM 75.0 °F - 55.9 °F 51% 30.15 in 10.0 mi SSW 8.1 mph - N/A   Overcast
1:53 PM 75.9 °F - 55.9 °F 50% 30.12 in 10.0 mi SSW 10.4 mph - N/A   Overcast
2:53 PM 78.1 °F - 55.9 °F 46% 30.10 in 10.0 mi South 6.9 mph - N/A   Overcast
3:53 PM 80.1 °F 80.2 °F 55.9 °F 43% 30.06 in 10.0 mi South 8.1 mph - N/A   Scattered Clouds
4:53 PM 80.1 °F 80.4 °F 57.0 °F 45% 30.04 in 10.0 mi SSW 10.4 mph - N/A   Scattered Clouds
5:53 PM 77.0 °F - 55.9 °F 48% 30.04 in 10.0 mi South 10.4 mph - N/A   Clear
6:53 PM 75.9 °F - 55.9 °F 50% 30.04 in 10.0 mi South 8.1 mph - N/A   Scattered Clouds
7:53 PM 71.1 °F - 55.9 °F 59% 30.04 in 10.0 mi South 5.8 mph - N/A   Clear
8:53 PM 68.0 °F - 55.9 °F 65% 30.06 in 10.0 mi SSW 4.6 mph - N/A   Clear
9:53 PM 66.9 °F - 55.9 °F 68% 30.06 in 10.0 mi South 3.5 mph - N/A   Clear
10:53 PM 64.9 °F - 55.9 °F 73% 30.07 in 10.0 mi SSE 3.5 mph - N/A   Clear
11:53 PM 64.9 °F - 55.9 °F 73% 30.08 in 10.0 mi South 3.5 mph - N/A   Clear